Weather History for Menomonie, WI

Change the Weather History Date:

Sunday, September 2, 2012

  Actual Average (KEAU) Record (KEAU)
Temperature  
Mean Temperature 69 °F 66 °F  
Max Temperature 87 °F 77 °F 100 °F (1937)
Min Temperature 51 °F 55 °F 37 °F (1909)
Degree Days  
Heating Degree Days 0 2  
Month to date heating degree days 4  
Since 1 July heating degree days 43  
Cooling Degree Days 4 3  
Month to date cooling degree days 6  
Year to date cooling degree days 533  
Growing Degree Days 19 (Base 50)    
Moisture  
Dew Point 56 °F    
Average Humidity 62    
Maximum Humidity 88    
Minimum Humidity 38    
Precipitation  
Precipitation 0.00 in 0.12 in 2.33 in (1900)
Month to date precipitation 0.25  
Year to date precipitation 22.37  
Snow  
Snow 0.00 in 0.00 in 0.00 in ()
Month to date snowfall 0.0  
Since 1 July snowfall 0.0  
Since 1 September snowfall 0.0  
Snow Depth -    
Sea Level Pressure  
Sea Level Pressure 29.98 in    
Wind  
Wind Speed 5 mph (ESE)    
Max Wind Speed 14 mph    
Max Gust Speed 17 mph    
Visibility 10 miles    
Events      
T = Trace of Precipitation, MM = Missing Value Source: NWS Daily Summary

Daily Weather History Graph

Daily Weather History Graph

Search for Another Location

Airport:

Trip Planner

Search our weather history database for the weather conditions in past years. The results will help you decide how hot, cold, wet, or windy it might be!

Date:

Astronomy

Sep. 02, 2012 Rise Set
Actual Time 6:31 AM CDT 7:41 PM CDT
Civil Twilight 6:01 AM CDT 8:11 PM CDT
Nautical Twilight 5:25 AM CDT 8:47 PM CDT
Astronomical Twilight 4:46 AM CDT 9:25 PM CDT
Moon 8:19 PM CDT (9/2) 8:49 AM CDT (9/2)
Length of Visible Light 14h 10m
Length of Day
13h 10m
Waning Gibbous, 95% of the Moon is Illuminated
Sep 2
Waning Gibbous
Sep 8
Last Quarter
Sep 15
New
Sep 22
First Quarter
Sep 29
Full

Hourly Weather History & Observations

Time (CDT) Temp. Heat Index Dew Point Humidity Pressure Visibility Wind Dir Wind Speed Gust Speed Precip Events Conditions
12:15 AM 60.8 °F - 50.0 °F 68% 30.06 in 10.0 mi ESE 4.6 mph - N/A   Clear
12:35 AM 60.8 °F - 50.0 °F 68% 30.06 in 10.0 mi ESE 4.6 mph - N/A   Clear
12:55 AM 60.8 °F - 50.0 °F 68% 30.06 in 10.0 mi Calm Calm - N/A   Clear
1:15 AM 59.0 °F - 50.0 °F 72% 30.06 in 10.0 mi Calm Calm - N/A   Clear
1:35 AM 60.8 °F - 50.0 °F 68% 30.05 in 10.0 mi ENE 3.5 mph - N/A   Clear
1:55 AM 59.0 °F - 50.0 °F 72% 30.06 in 10.0 mi ENE 4.6 mph - N/A   Clear
2:15 AM 59.0 °F - 50.0 °F 72% 30.06 in 10.0 mi NE 3.5 mph - N/A   Clear
2:35 AM 55.4 °F - 50.0 °F 82% 30.06 in 10.0 mi Calm Calm - N/A   Clear
2:55 AM 55.4 °F - 50.0 °F 82% 30.06 in 10.0 mi East 3.5 mph - N/A   Clear
3:15 AM 57.2 °F - 50.0 °F 77% 30.05 in 10.0 mi ENE 3.5 mph - N/A   Clear
3:35 AM 55.4 °F - 48.2 °F 77% 30.05 in 10.0 mi ENE 3.5 mph - N/A   Clear
3:55 AM 55.4 °F - 50.0 °F 82% 30.05 in 10.0 mi ENE 5.8 mph - N/A   Clear
4:15 AM 55.4 °F - 50.0 °F 82% 30.05 in 10.0 mi ENE 4.6 mph - N/A   Clear
4:35 AM 57.2 °F - 50.0 °F 77% 30.05 in 10.0 mi Calm Calm - N/A   Clear
4:55 AM 53.6 °F - 50.0 °F 88% 30.05 in 10.0 mi Calm Calm - N/A   Clear
5:15 AM 51.8 °F - 48.2 °F 88% 30.04 in 10.0 mi Calm Calm - N/A   Clear
5:35 AM 53.6 °F - 50.0 °F 88% 30.03 in 10.0 mi ENE 4.6 mph - N/A   Clear
5:55 AM 53.6 °F - 50.0 °F 88% 30.03 in 10.0 mi ENE 5.8 mph - N/A   Clear
6:15 AM 53.6 °F - 50.0 °F 88% 30.03 in 10.0 mi ENE 4.6 mph - N/A   Clear
6:35 AM 53.6 °F - 48.2 °F 82% 30.03 in 10.0 mi ENE 4.6 mph - N/A   Clear
6:55 AM 53.6 °F - 50.0 °F 88% 30.04 in 10.0 mi ENE 3.5 mph - N/A   Clear
7:15 AM 53.6 °F - 50.0 °F 88% 30.03 in 10.0 mi ENE 3.5 mph - N/A   Clear
7:35 AM 55.4 °F - 50.0 °F 82% 30.03 in 10.0 mi Calm Calm - N/A   Clear
7:55 AM 55.4 °F - 51.8 °F 88% 30.04 in 10.0 mi Calm Calm - N/A   Clear
8:15 AM 59.0 °F - 51.8 °F 77% 30.04 in 10.0 mi Calm Calm - N/A   Clear
8:35 AM 60.8 °F - 51.8 °F 72% 30.03 in 10.0 mi East 3.5 mph - N/A   Clear
8:55 AM 62.6 °F - 51.8 °F 68% 30.03 in 10.0 mi ESE 6.9 mph - N/A   Clear
9:15 AM 62.6 °F - 53.6 °F 72% 30.02 in 10.0 mi ESE 6.9 mph - N/A   Clear
9:35 AM 64.4 °F - 53.6 °F 68% 30.02 in 10.0 mi ESE 8.1 mph - N/A   Clear
10:15 AM 69.8 °F - 53.6 °F 56% 30.02 in 10.0 mi SE 6.9 mph - N/A   Clear
10:35 AM 71.6 °F - 53.6 °F 53% 30.02 in 10.0 mi SE 10.4 mph - N/A   Clear
10:55 AM 73.4 °F - 53.6 °F 50% 30.02 in 10.0 mi ESE 10.4 mph - N/A   Clear
11:15 AM 77.0 °F - 53.6 °F 44% 30.01 in 10.0 mi SE 5.8 mph - N/A   Clear
11:35 AM 77.0 °F - 53.6 °F 44% 30.01 in 10.0 mi ESE 8.1 mph - N/A   Clear
11:55 AM 80.6 °F 80.3 °F 53.6 °F 39% 30.00 in 10.0 mi ESE 8.1 mph - N/A   Clear
12:15 PM 80.6 °F 80.5 °F 55.4 °F 42% 30.00 in 10.0 mi SE 9.2 mph - N/A   Clear
12:35 PM 82.4 °F 82.0 °F 57.2 °F 42% 29.99 in 10.0 mi SE 9.2 mph - N/A   Clear
12:55 PM 84.2 °F 83.8 °F 59.0 °F 42% 29.98 in 10.0 mi SSE 8.1 mph - N/A   Clear
1:15 PM 84.2 °F 83.8 °F 59.0 °F 42% 29.97 in 10.0 mi South 6.9 mph - N/A   Clear
1:35 PM 86.0 °F 85.4 °F 59.0 °F 40% 29.96 in 10.0 mi ESE 10.4 mph 16.1 mph N/A   Clear
1:55 PM 87.8 °F 87.1 °F 59.0 °F 38% 29.95 in 10.0 mi SSE 10.4 mph - N/A   Clear
2:15 PM 86.0 °F 85.4 °F 59.0 °F 40% 29.94 in 10.0 mi South 10.4 mph 17.3 mph N/A   Clear
2:35 PM 86.0 °F 86.1 °F 60.8 °F 43% 29.93 in 10.0 mi SSE 11.5 mph 16.1 mph N/A   Clear
2:55 PM 87.8 °F 87.1 °F 59.0 °F 38% 29.93 in 10.0 mi SSE 12.7 mph 16.1 mph N/A   Clear
3:15 PM 87.8 °F 87.6 °F 60.8 °F 40% 29.91 in 10.0 mi SSE 10.4 mph - N/A   Clear
3:35 PM 87.8 °F 87.1 °F 59.0 °F 38% 29.91 in 10.0 mi SSE 13.8 mph - N/A   Clear
3:55 PM 87.8 °F 87.6 °F 60.8 °F 40% 29.91 in 10.0 mi South 12.7 mph - N/A   Clear
4:15 PM 87.8 °F 87.6 °F 60.8 °F 40% 29.91 in 10.0 mi SSE 11.5 mph - N/A   Clear
4:35 PM 87.8 °F 87.6 °F 60.8 °F 40% 29.90 in 10.0 mi SSE 8.1 mph - N/A   Clear
4:55 PM 87.8 °F 87.6 °F 60.8 °F 40% 29.90 in 10.0 mi SSE 8.1 mph - N/A   Clear
5:15 PM 87.8 °F 87.6 °F 60.8 °F 40% 29.90 in 10.0 mi SSE 13.8 mph 17.3 mph N/A   Clear
5:35 PM 86.0 °F 86.1 °F 60.8 °F 43% 29.89 in 10.0 mi SE 10.4 mph 16.1 mph N/A   Clear
5:55 PM 84.2 °F 85.0 °F 62.6 °F 48% 29.89 in 10.0 mi SSE 9.2 mph - N/A   Clear
6:15 PM 86.0 °F 86.6 °F 62.6 °F 45% 29.89 in 10.0 mi SE 11.5 mph - N/A   Clear
6:35 PM 84.2 °F 85.0 °F 62.6 °F 48% 29.89 in 10.0 mi SSE 8.1 mph - N/A   Clear
6:55 PM 82.4 °F 83.4 °F 62.6 °F 51% 29.89 in 10.0 mi SSE 8.1 mph - N/A   Clear
7:15 PM 82.4 °F 83.4 °F 62.6 °F 51% 29.88 in 10.0 mi SE 5.8 mph - N/A   Clear
7:35 PM 80.6 °F 81.8 °F 62.6 °F 54% 29.88 in 10.0 mi SE 6.9 mph - N/A   Clear
7:55 PM 78.8 °F - 62.6 °F 57% 29.88 in 10.0 mi SSE 4.6 mph - N/A   Clear
8:15 PM 78.8 °F - 62.6 °F 57% 29.88 in 10.0 mi SE 6.9 mph - N/A   Clear
8:35 PM 77.0 °F - 62.6 °F 61% 29.89 in 10.0 mi SSE 4.6 mph - N/A   Clear
8:55 PM 77.0 °F - 62.6 °F 61% 29.90 in 10.0 mi SSE 4.6 mph - N/A   Clear
9:15 PM 75.2 °F - 62.6 °F 65% 29.91 in 10.0 mi SSE 4.6 mph - N/A   Clear
9:35 PM 73.4 °F - 64.4 °F 73% 29.90 in 10.0 mi SE 6.9 mph - N/A   Clear
9:55 PM 73.4 °F - 62.6 °F 69% 29.90 in 10.0 mi ESE 3.5 mph - N/A   Clear
10:15 PM 73.4 °F - 62.6 °F 69% 29.90 in 10.0 mi ESE 4.6 mph - N/A   Clear
10:35 PM 73.4 °F - 64.4 °F 73% 29.90 in 10.0 mi ESE 6.9 mph - N/A   Clear
10:55 PM 71.6 °F - 64.4 °F 78% 29.89 in 10.0 mi ESE 5.8 mph - N/A   Clear
11:35 PM 71.6 °F - 64.4 °F 78% 29.89 in 10.0 mi ESE 5.8 mph - N/A   Clear
11:55 PM 71.6 °F - 64.4 °F 78% 29.88 in 10.0 mi ESE 5.8 mph - N/A   Clear